Regional Weather Roundup
Issued by NWS

Home | Current Version | Previous Version | Text Only | Print | Product List | Glossary On
Versions: 1 2 3 4 5 6 7 8 9 10 11 12 13 14 15 16 17 18 19 20 21 22 23 24 25 26 27 28 29 30 31 32 33 34 35 36 37 38 39 40 41 42 43 44 45 46 47 48 49 50
000
ASUS43 KDTX 271410
RWRMI
MICHIGAN HOURLY REGIONAL WEATHER ROUNDUP
NATIONAL WEATHER SERVICE DETROIT/PONTIAC MI
1000 AM EDT FRI MAR 27 2015

NOTE: "FAIR" INDICATES FEW OR NO CLOUDS BELOW 12,000 FEET WITH NO
SIGNIFICANT WEATHER AND/OR OBSTRUCTION TO VISIBILITY.

MIZ047>049-052>055-059>063-066>070-074>076-081>083-271500-
SOUTHEAST LOWER MICHIGAN

CITY           SKY/WX    TMP DP  RH WIND       PRES   REMARKS
ADRIAN         CLOUDY    23  11  60 N13       30.03R
ALMA           CLOUDY    21   8  58 NW13G22   30.07S
ANN ARBOR      CLOUDY    23  11  60 N16G23    30.01R
BAD AXE        SNOW      18  14  83 N14G22    30.01R VSB 1/4
DETROIT CITY   LGT SNOW  25  13  60 N16G24    30.00R
DETROIT        FLURRIES  26  13  57 NW15      30.01R
FLINT          LGT SNOW  22  13  68 NW15      30.03R
GROSSE ILE     CLOUDY    25  14  63 N13       29.99S
HILLSDALE      CLOUDY    22  11  61 N13G18    30.00S
HOWELL         LGT SNOW  22  15  74 NW10      30.01R

CITY           SKY/WX    TMP DP  RH WIND       PRES   REMARKS
JACKSON        CLOUDY    21  10  62 N14       30.02S
LAMBERTVILLE   CLOUDY    27  14  59 NW10G16   30.03R
LANSING        CLOUDY    21   8  57 NW14G22   30.05R
LAPEER         NOT AVBL
MASON          FLURRIES  20  11  67 N14G21    30.03S
MONROE         CLOUDY    25  14  63 NW10G20   30.00R
MT. CLEMENS    LGT SNOW  23  16  74 NW13G22   29.96S
PONTIAC        LGT SNOW  21  13  71 NW14      29.98R
PORT HOPE        N/A     21  12  68 N17G28    30.01R
PORT HURON     LGT SNOW  23  18  80 NW9G18    29.98R
TRI CITIES     LGT SNOW  22  11  62 N18       30.06R
YPSILANTI      CLOUDY    27  13  55 N20       30.01R
$$
MIZ043>046-050>051-056>058-064>065-071>073-077>080-271500-
SOUTHWEST LOWER MICHIGAN

CITY           SKY/WX    TMP DP  RH WIND       PRES   REMARKS
BATTLE CREEK   CLOUDY    22   8  55 N18G24    30.05S
BENTON HARBOR  LGT SNOW  23  16  74 VRB6      30.10S
BIG RAPIDS     SUNNY     19   3  50 N15G21    30.08S
COLDWATER      CLOUDY    23   8  53 N15G22    30.04S
HOLLAND        MOSUNNY   25   2  37 N13G25    30.12R
GRAND RAPIDS   MOSUNNY   23  -3  32 N16G28    30.08S
KALAMAZOO      CLOUDY    24   7  48 N18G30    30.06S
MARSHALL       CLOUDY    21   6  51 N9        30.04R
MUSKEGON       MOSUNNY   23  -1  35 N12G23    30.13F
$$
MIZ016>042-271500-
NORTHERN LOWER MICHIGAN

CITY           SKY/WX    TMP DP  RH WIND       PRES   REMARKS
ALPENA         PTSUNNY   14   4  64 N15       30.09S WCI  -1
BEAVER ISLAND  CLOUDY     8   1  73 N8G17     30.19S
BELLAIRE       MOSUNNY   14   3  60 N8        30.16S
CADILLAC       MOSUNNY   15   1  54 N9        30.06S
CHARLEVOIX     MOSUNNY    9   3  75 N16       30.20R WCI  -8
FRANKFORT      CLOUDY    20   6  54 N6G21     30.16R
GAYLORD        SUNNY     11  -2  56 VRB6      30.06S
GRAYLING       SUNNY     15   0  51 N16G22    30.08S WCI  -1
HARBOR SPRINGS SUNNY     10   1  66 NW9       30.15R
HOUGHTON LAKE  SUNNY     16  -1  47 N15G22    30.06S
MANISTEE       MOSUNNY   18   1  49 N10       30.16R
OSCODA         PTSUNNY   19   6  58 N12G22    30.06R
PELLSTON       SUNNY      9  -1  64 N9        30.16R
TRAVERSE CITY  PTSUNNY   15   5  64 N12       30.15S
$$
MIZ007>008-015-271500-
EASTERN UPPER MICHIGAN

CITY           SKY/WX    TMP DP  RH WIND       PRES   REMARKS
KINROSS        SUNNY      7   0  72 N13       30.16R WCI  -9
MACKINAC ISLAN MOSUNNY    9  -1  63 N12G18    30.15S WCI  -6
NEWBERRY       SUNNY      5  -3  70 N13       30.18S WCI -12
S. S. MARIE    SUNNY      6  -7  54 N10       30.18R WCI  -9
$$
MIZ004>006-011>014-085-271500-
CENTRAL UPPER MICHIGAN

CITY           SKY/WX    TMP DP  RH WIND       PRES   REMARKS
MANISTIQUE     SUNNY      7  -1  67 MISG      30.21R
ESCANABA       MOSUNNY   12   1  62 N12       30.23R WCI  -2
MENOMINEE      MOSUNNY   16   7  67 NE12G20   30.22R
SAWYER-GWINN   PTSUNNY    9   3  78 NE17G23   30.19R HAZE    WCI -10
$$
MIZ001>003-009>011-084-271500-
WESTERN UPPER MICHIGAN

CITY           SKY/WX    TMP DP  RH WIND       PRES   REMARKS
IRON MOUNTAIN  SUNNY     13   3  64 N9        30.19R
HOUGHTON       SUNNY      9  -1  64 E5        30.24S
COPPER HARBOR    N/A     10   0  63 E5        30.29R
IRONWOOD       CLOUDY    18   9  68 N8        30.21S
$$

ABBREVIATIONS USED IN REMARKS
   TC - TEMPERATURE IN CELSIUS
  WCI - WIND CHILL INDEX
   HX - HEAT INDEX
  VSB - VISIBILITY




USA.gov is the U.S. government's official web portal to all federal, state and local government web resources and services.